Location: Fontevrault
(47.1823°N, 0.0493°E)
Time: 06:48:14
(UTC+00:00)

Cosmos 2263 Rocket - Pass Details

Date: 31 October 2021
Orbit: 825 x 847 km, 71.0° (Epoch: 01 December)

Event Time Altitude Azimuth Distance (km) Brightness Sun altitude
Rises 06:00:14 0° 178° (S) 3,370 5.5 -7.6°
Reaches altitude 10° 06:02:50 10° 170° (S) 2,437 4.9 -7.1°
Maximum altitude 06:07:51 35° 106° (ESE) 1,315 4.1 -6.3°
Drops below altitude 10° 06:12:52 10° 42° (NE) 2,441 5.0 -5.5°
Sets 06:15:28 0° 34° (NE) 3,376 5.6 -5.1°
